AAL2247 KBOS-KMIA

Flight info

Callsign AAL2247
Flight time N/A
Altitude 40000
Route SSOXS7 SSOXS Q167 RIFLE HEADI Q97 KALDA Q101 SKARP Y313 HOAGG BNFSH3
Aircraft B772/H-SDE2E3FGHIJ5LORVWXY/LB1D1

Departure

Time 2026-04-27 23:19
Airport Boston Logan International Airport (KBOS)

Arrival

Time N/A
Airport Miami International Airport (KMIA)
Time Latitude Longitude Altitude Speed Heading
2026-04-27 22:51 42.35983 -71.01693 30 ft 0 kts 316°
2026-04-27 23:07 42.35977 -71.01685 30 ft 3 kts 307°
2026-04-27 23:08 42.35967 -71.01662 29 ft 3 kts 286°
2026-04-27 23:08 42.35964 -71.01635 27 ft 3 kts 264°
2026-04-27 23:08 42.35966 -71.01611 28 ft 0 kts 201°
2026-04-27 23:08 42.35965 -71.01611 27 ft 0 kts 197°
2026-04-27 23:15 42.35962 -71.01612 27 ft 3 kts 195°
2026-04-27 23:15 42.35924 -71.01623 30 ft 6 kts 180°
2026-04-27 23:15 42.35889 -71.01587 30 ft 8 kts 108°
2026-04-27 23:15 42.35876 -71.01503 30 ft 10 kts 100°
2026-04-27 23:16 42.35863 -71.01394 30 ft 13 kts 99°
2026-04-27 23:16 42.35844 -71.01278 30 ft 12 kts 120°
2026-04-27 23:16 42.35777 -71.01251 30 ft 10 kts 201°
2026-04-27 23:16 42.35712 -71.01282 30 ft 9 kts 199°
2026-04-27 23:17 42.35667 -71.01302 30 ft 7 kts 196°
2026-04-27 23:17 42.35605 -71.01299 30 ft 11 kts 150°
2026-04-27 23:17 42.35590 -71.01217 30 ft 6 kts 77°
2026-04-27 23:17 42.35590 -71.01215 30 ft 0 kts 76°
2026-04-27 23:18 42.35591 -71.01213 30 ft 4 kts 76°
2026-04-27 23:19 42.35649 -71.00882 30 ft 81 kts 77°
2026-04-27 23:19 42.35852 -70.99735 84 ft 163 kts 77°
2026-04-27 23:19 42.36166 -70.98127 884 ft 185 kts 73°
2026-04-27 23:19 42.36500 -70.96512 2389 ft 177 kts 73°
2026-04-27 23:20 42.36790 -70.94789 2886 ft 201 kts 75°
2026-04-27 23:20 42.37107 -70.92802 3124 ft 232 kts 76°
2026-04-27 23:20 42.37472 -70.90570 3680 ft 248 kts 75°
2026-04-27 23:20 42.37861 -70.88262 4566 ft 253 kts 75°
2026-04-27 23:21 42.38260 -70.85939 5503 ft 254 kts 73°
2026-04-27 23:21 42.38666 -70.83610 6449 ft 255 kts 73°
2026-04-27 23:21 42.38951 -70.81241 7153 ft 260 kts 88°
2026-04-27 23:21 42.38540 -70.78800 7833 ft 270 kts 102°
2026-04-27 23:22 42.37996 -70.76354 8649 ft 273 kts 101°
2026-04-27 23:22 42.37415 -70.73900 9420 ft 276 kts 109°
2026-04-27 23:22 42.36206 -70.71790 10037 ft 295 kts 138°
2026-04-27 23:22 42.34329 -70.70476 10487 ft 318 kts 156°
2026-04-27 23:23 42.32155 -70.69516 10889 ft 336 kts 159°
2026-04-27 23:23 42.29901 -70.68542 11621 ft 345 kts 159°
2026-04-27 23:23 42.27587 -70.67525 12493 ft 351 kts 159°
2026-04-27 23:23 42.25260 -70.66471 13520 ft 355 kts 159°
2026-04-27 23:24 42.22911 -70.65397 14509 ft 360 kts 159°
2026-04-27 23:24 42.20520 -70.64302 15366 ft 366 kts 159°
2026-04-27 23:24 42.18089 -70.63188 16243 ft 372 kts 159°
2026-04-27 23:24 42.15613 -70.62085 17080 ft 375 kts 163°
2026-04-27 23:25 42.12987 -70.61793 17663 ft 387 kts 187°
2026-04-27 23:25 42.10413 -70.62707 18465 ft 390 kts 199°
2026-04-27 23:25 42.07815 -70.63881 19201 ft 397 kts 199°
2026-04-27 23:25 42.05178 -70.65072 19955 ft 402 kts 199°
2026-04-27 23:26 42.02505 -70.66273 20705 ft 408 kts 199°
2026-04-27 23:26 41.99792 -70.67484 21458 ft 413 kts 199°
2026-04-27 23:26 41.97041 -70.68704 22215 ft 419 kts 199°
2026-04-27 23:26 41.94255 -70.69936 22965 ft 424 kts 199°
2026-04-27 23:27 41.91426 -70.71187 23710 ft 430 kts 199°
2026-04-27 23:27 41.88566 -70.72447 24354 ft 436 kts 199°
2026-04-27 23:27 41.85667 -70.73715 25008 ft 440 kts 200°
2026-04-27 23:27 41.82773 -70.75083 25595 ft 440 kts 206°
2026-04-27 23:28 41.80038 -70.76964 26087 ft 445 kts 212°
2026-04-27 23:28 41.77352 -70.79066 26719 ft 449 kts 214°
2026-04-27 23:28 41.74655 -70.81216 27410 ft 452 kts 214°
2026-04-27 23:28 41.71968 -70.83323 28033 ft 456 kts 214°
2026-04-27 23:29 41.69198 -70.85448 28592 ft 461 kts 213°
2026-04-27 23:29 41.66384 -70.87572 29136 ft 466 kts 213°
2026-04-27 23:29 41.63538 -70.89706 29688 ft 470 kts 213°
2026-04-27 23:29 41.60671 -70.91845 30224 ft 474 kts 213°
2026-04-27 23:30 41.57819 -70.94067 30617 ft 474 kts 219°
2026-04-27 23:30 41.55220 -70.96769 30919 ft 473 kts 228°
2026-04-27 23:30 41.52924 -70.99887 31360 ft 470 kts 235°
2026-04-27 23:30 41.50966 -71.03331 31812 ft 464 kts 243°
2026-04-27 23:31 41.49188 -71.06929 32280 ft 465 kts 243°
2026-04-27 23:31 41.47417 -71.10559 32654 ft 468 kts 243°
2026-04-27 23:31 41.45628 -71.14212 32972 ft 473 kts 243°
2026-04-27 23:31 41.43812 -71.17884 33323 ft 476 kts 243°
2026-04-27 23:32 41.41972 -71.21574 33680 ft 480 kts 243°
2026-04-27 23:32 41.40111 -71.25290 34022 ft 483 kts 243°
2026-04-27 23:32 41.38237 -71.29021 34363 ft 486 kts 243°
2026-04-27 23:32 41.36349 -71.32764 34661 ft 488 kts 243°
2026-04-27 23:33 41.34453 -71.36514 34979 ft 489 kts 243°
2026-04-27 23:33 41.32570 -71.40216 35282 ft 490 kts 242°
2026-04-27 23:33 41.30654 -71.43980 35620 ft 491 kts 242°
2026-04-27 23:33 41.28743 -71.47739 36016 ft 489 kts 242°
2026-04-27 23:34 41.26843 -71.51476 36449 ft 487 kts 242°
2026-04-27 23:34 41.24953 -71.55196 36893 ft 485 kts 242°
2026-04-27 23:34 41.23078 -71.58890 37676 ft 474 kts 240°
2026-04-27 23:34 41.21261 -71.62461 38624 ft 462 kts 240°
2026-04-27 23:35 41.19466 -71.65992 38928 ft 463 kts 239°
2026-04-27 23:35 41.17658 -71.69561 39023 ft 467 kts 240°
2026-04-27 23:35 41.15833 -71.73145 39197 ft 469 kts 239°
2026-04-27 23:35 41.14003 -71.76720 39446 ft 468 kts 239°
2026-04-27 23:36 41.12175 -71.80286 39705 ft 467 kts 239°
2026-04-27 23:36 41.10350 -71.83851 39941 ft 467 kts 239°
2026-04-27 23:36 41.08533 -71.87418 40160 ft 467 kts 239°
2026-04-27 23:36 41.06704 -71.91003 40215 ft 471 kts 239°
2026-04-27 23:37 41.03126 -71.98252 40290 ft 466 kts 244°
2026-04-27 23:37 41.00350 -72.05881 40287 ft 461 kts 249°
2026-04-27 23:38 40.97691 -72.13591 40285 ft 460 kts 249°
2026-04-27 23:38 40.94996 -72.21284 40282 ft 460 kts 249°
2026-04-27 23:39 40.92074 -72.28833 40294 ft 466 kts 241°
2026-04-27 23:39 40.88124 -72.35723 40281 ft 475 kts 231°
2026-04-27 23:40 40.83429 -72.41841 40285 ft 478 kts 228°
2026-04-27 23:40 40.78592 -72.47902 40290 ft 482 kts 224°
2026-04-27 23:41 40.73369 -72.53478 40285 ft 484 kts 223°
2026-04-27 23:41 40.68297 -72.59282 40285 ft 479 kts 231°
2026-04-27 23:42 40.64006 -72.65947 40294 ft 476 kts 236°
2026-04-27 23:42 40.59818 -72.72710 40298 ft 477 kts 236°
2026-04-27 23:43 40.55604 -72.79477 40295 ft 478 kts 236°
2026-04-27 23:43 40.51398 -72.86178 40288 ft 478 kts 236°
2026-04-27 23:44 40.47161 -72.92902 40293 ft 477 kts 236°
2026-04-27 23:44 40.42933 -72.99601 40282 ft 477 kts 236°
2026-04-27 23:45 40.38701 -73.06297 40291 ft 476 kts 236°
2026-04-27 23:45 40.34470 -73.12974 40286 ft 476 kts 236°
2026-04-27 23:46 40.30236 -73.19639 40295 ft 476 kts 236°
2026-04-27 23:46 40.25996 -73.26300 40303 ft 476 kts 236°
2026-04-27 23:47 40.21752 -73.32956 40305 ft 476 kts 236°
2026-04-27 23:47 40.17505 -73.39609 40298 ft 477 kts 236°
2026-04-27 23:48 40.13243 -73.46266 40298 ft 477 kts 236°
2026-04-27 23:48 40.08984 -73.52908 40296 ft 477 kts 237°
2026-04-27 23:49 40.04726 -73.59553 40299 ft 477 kts 237°
2026-04-27 23:49 40.00452 -73.66189 40302 ft 478 kts 236°
2026-04-27 23:50 39.95556 -73.72195 40306 ft 493 kts 220°
2026-04-27 23:50 39.89462 -73.76421 40281 ft 504 kts 207°
2026-04-27 23:51 39.82909 -73.79759 40298 ft 507 kts 206°
2026-04-27 23:51 39.76343 -73.83110 40218 ft 508 kts 207°
2026-04-27 23:52 39.69738 -73.86585 40303 ft 516 kts 208°
2026-04-27 23:52 39.63026 -73.90160 40318 ft 524 kts 208°